COSMOS 2235 (GLONASS)

Satellite information

Favourite Embed

Satellite Type and Status

PAYLOADIN ORBIT

Key statistics

Satellite COSMOS 2235 (GLONASS) at a glance.

Uptime

11830

Days in orbit

Revolutions

≈ 2.1

Per day

Orbit

MEO

Medium Earth Orbit

Inclination

64.7

Latest

Satellite identification and parameters

Extended collection of information and parameters for COSMOS 2235 (GLONASS).

Object identification

Identified? True

Debris? False

Object name: COSMOS 2235 (GLONASS)

International designator: 1993-010C

Object number (NORAD): 22514

Object ID (CCSDS): 22514

Country: COMMONWEALTH OF INDEPENDENT STATES (CIS)

Current information (Y/N): Y

RCS size: LARGE

Orbital parameters

Period: 675.731 minutes

Inclination: 64.707 deg

SMA: 25507.968 km

Apoapsis: 19151.768 km

Periapsis: 19107.899 km

RAAN: 82.1894 deg

Eccentricy: 0.0008599

Argument of periapsis: 213.2519 deg

Mean anomaly: 327.6619 deg

Mean motion: 2.13102704 rev/day

Mean motion (dot): -0.00000051 rev/day2

B* drag term: 0.0 1/REarth

Two-line elements (TLE)

Creation date: July 6, 2025, 4:10 a.m.

Reference frame: TEME

Reference center: EARTH

Epoch: July 5, 2025, 4:35 p.m. UTC

TLE line 0: 0 COSMOS 2235 (GLONASS)

TLE line 1: 1 22514U 93010C 25186.69142091 -.00000051 00000-0 00000-0 0 9998

TLE line 2: 2 22514 64.7070 82.1894 0008599 213.2519 327.6619 2.13102704251907

Live tracking on map

Real-time ground track for satellite COSMOS 2235 (GLONASS).

In-orbit conjunctions

A list of the most updated potential collisions computed for object COSMOS 2235 (GLONASS).

Target Orbit TCA Probability of collision Miss distance Type
SL-12 R/B(2) MEO 2025-06-13 16:44:28 TBA 4638.0 (m) ROCKET BODY

Associated space launch

GLONASS navigation satellites

COSMOS 2235 (GLONASS) was lifted into orbit during the mission ‘Proton | Uragan 51 to 53’, on board a Proton space rocket.

The launch took place on Feb. 17, 1993, 8:09 p.m. from 81/23 (81L).

For more information about the launch, click the button.

Launch to space Proton | Uragan 51 to 53
Proton | Uragan 51 to 53

Agency: N/A

Status: Launch Successful

Launch date: Feb. 17, 1993, 8:09 p.m. UTC

Rocket: Proton

Launch pad: 81/23 (81L)

Location: Baikonur Cosmodrome, Republic of Kazakhstan

...

Latest news about this satellite

There are no fresh news available about this satellite. Check back as we update our databases every day.


Newsletter sign-up

Weekly statistics, charts and insights to help you stay on top of the space industry.